Time,TemperatureF,DewpointF,PressureIn,WindDirection,WindDirectionDegrees,WindSpeedMPH,WindSpeedGustMPH,Humidity,HourlyPrecipIn,Conditions,Clouds,dailyrainin,SolarRadiationWatts/m^2,SoftwareType,DateUTC
2013-10-20 00:12:00,44.0,15.0,-100.00,SW,228,4.0,9.0,30,0.00,,,-99.99,0.000000,,2013-10-20 06:12:00,
2013-10-20 00:22:00,44.0,15.0,-100.00,SW,228,4.0,9.0,30,0.00,,,-99.99,0.000000,,2013-10-20 06:22:00,
2013-10-20 00:32:00,44.0,15.0,-100.00,SW,228,4.0,9.0,30,0.00,,,-99.99,0.000000,,2013-10-20 06:32:00,
2013-10-20 00:42:00,44.0,15.0,-100.00,SW,228,4.0,9.0,30,0.00,,,-99.99,0.000000,,2013-10-20 06:42:00,
2013-10-20 01:12:00,44.0,15.0,-100.00,WSW,250,5.0,10.0,30,0.00,,,0.00,0.000000,,2013-10-20 07:12:00,
2013-10-20 01:22:00,44.0,15.0,-100.00,WSW,250,5.0,10.0,30,0.00,,,0.00,0.000000,,2013-10-20 07:22:00,
2013-10-20 01:32:00,44.0,15.0,-100.00,WSW,250,5.0,10.0,30,0.00,,,0.00,0.000000,,2013-10-20 07:32:00,
2013-10-20 01:42:00,44.0,15.0,-100.00,WSW,250,5.0,10.0,30,0.00,,,0.00,0.000000,,2013-10-20 07:42:00,
2013-10-20 02:11:00,39.0,16.0,-100.00,WNW,293,1.0,11.0,38,0.00,,,0.00,0.000000,,2013-10-20 08:11:00,
2013-10-20 02:22:00,39.0,16.0,-100.00,WNW,293,1.0,11.0,38,0.00,,,0.00,0.000000,,2013-10-20 08:22:00,
2013-10-20 02:32:00,39.0,16.0,-100.00,WNW,293,1.0,11.0,38,0.00,,,0.00,0.000000,,2013-10-20 08:32:00,
2013-10-20 02:42:00,39.0,16.0,-100.00,WNW,293,1.0,11.0,38,0.00,,,0.00,0.000000,,2013-10-20 08:42:00,
2013-10-20 03:21:00,45.0,16.0,-100.00,SW,225,7.0,15.0,31,0.00,,,0.00,0.000000,,2013-10-20 09:21:00,
2013-10-20 03:33:00,45.0,16.0,-100.00,SW,225,7.0,15.0,31,0.00,,,0.00,0.000000,,2013-10-20 09:33:00,
2013-10-20 03:43:00,45.0,16.0,-100.00,SW,225,7.0,15.0,31,0.00,,,0.00,0.000000,,2013-10-20 09:43:00,
2013-10-20 04:12:00,42.0,18.0,-100.00,WSW,241,4.0,19.0,37,0.00,,,0.00,0.000000,,2013-10-20 10:12:00,
2013-10-20 04:23:00,42.0,18.0,-100.00,WSW,241,4.0,19.0,37,0.00,,,0.00,0.000000,,2013-10-20 10:23:00,
2013-10-20 04:33:00,42.0,18.0,-100.00,WSW,241,4.0,19.0,37,0.00,,,0.00,0.000000,,2013-10-20 10:33:00,
2013-10-20 04:43:00,42.0,18.0,-100.00,WSW,241,4.0,19.0,37,0.00,,,0.00,0.000000,,2013-10-20 10:43:00,
2013-10-20 05:12:00,40.0,17.0,-100.00,NW,308,1.0,13.0,39,0.00,,,0.00,0.000000,,2013-10-20 11:12:00,
2013-10-20 05:22:00,40.0,17.0,-100.00,NW,308,1.0,13.0,39,0.00,,,0.00,0.000000,,2013-10-20 11:22:00,
2013-10-20 05:33:00,40.0,17.0,-100.00,NW,308,1.0,13.0,39,0.00,,,0.00,0.000000,,2013-10-20 11:33:00,
2013-10-20 05:42:00,40.0,17.0,-100.00,NW,308,1.0,13.0,39,0.00,,,0.00,0.000000,,2013-10-20 11:42:00,
2013-10-20 07:21:00,38.0,19.0,-100.00,NNW,330,2.0,12.0,45,-99.99,,,0.00,0.000000,,2013-10-20 13:21:00,
2013-10-20 07:32:00,38.0,19.0,-100.00,NNW,330,2.0,12.0,45,-99.99,,,0.00,0.000000,,2013-10-20 13:32:00,
2013-10-20 07:42:00,38.0,19.0,-100.00,NNW,330,2.0,12.0,45,-99.99,,,0.00,0.000000,,2013-10-20 13:42:00,
2013-10-20 08:12:00,35.0,19.0,-100.00,SE,136,5.0,7.0,52,0.00,,,0.00,3.000000,,2013-10-20 14:12:00,
2013-10-20 08:21:00,35.0,19.0,-100.00,SE,136,5.0,7.0,52,0.00,,,0.00,3.000000,,2013-10-20 14:21:00,
2013-10-20 08:32:00,35.0,19.0,-100.00,SE,136,5.0,7.0,52,0.00,,,0.00,3.000000,,2013-10-20 14:32:00,
2013-10-20 08:42:00,35.0,19.0,-100.00,SE,136,5.0,7.0,52,0.00,,,0.00,3.000000,,2013-10-20 14:42:00,
2013-10-20 09:11:00,41.0,22.0,-100.00,NNW,327,0.0,6.0,46,0.00,,,-99.99,89.000000,,2013-10-20 15:11:00,
2013-10-20 09:21:00,41.0,22.0,-100.00,NNW,327,0.0,6.0,46,0.00,,,-99.99,89.000000,,2013-10-20 15:21:00,
2013-10-20 09:34:00,41.0,22.0,-100.00,NNW,327,0.0,6.0,46,0.00,,,-99.99,89.000000,,2013-10-20 15:34:00,
2013-10-20 09:44:00,41.0,22.0,-100.00,NNW,327,0.0,6.0,46,0.00,,,-99.99,89.000000,,2013-10-20 15:44:00,
2013-10-20 10:24:00,44.0,22.0,-100.00,ESE,123,3.0,5.0,42,0.00,,,-99.99,219.000000,,2013-10-20 16:24:00,
2013-10-20 10:33:00,44.0,22.0,-100.00,ESE,123,3.0,5.0,42,0.00,,,-99.99,219.000000,,2013-10-20 16:33:00,
2013-10-20 10:43:00,44.0,22.0,-100.00,ESE,123,3.0,5.0,42,0.00,,,-99.99,219.000000,,2013-10-20 16:43:00,
2013-10-20 11:12:00,48.0,25.0,-100.00,NW,323,3.0,9.0,41,0.00,,,0.00,323.000000,,2013-10-20 17:12:00,
2013-10-20 11:23:00,48.0,25.0,-100.00,NW,323,3.0,9.0,41,0.00,,,0.00,323.000000,,2013-10-20 17:23:00,
2013-10-20 11:34:00,48.0,25.0,-100.00,NW,323,3.0,9.0,41,0.00,,,0.00,323.000000,,2013-10-20 17:34:00,
2013-10-20 11:42:00,48.0,25.0,-100.00,NW,323,3.0,9.0,41,0.00,,,0.00,323.000000,,2013-10-20 17:42:00,
2013-10-20 12:12:00,50.0,27.0,-100.00,NNW,335,5.0,9.0,41,0.00,,,0.00,446.000000,,2013-10-20 18:12:00,
2013-10-20 12:21:00,50.0,27.0,-100.00,NNW,335,5.0,9.0,41,0.00,,,0.00,446.000000,,2013-10-20 18:21:00,
2013-10-20 12:32:00,50.0,27.0,-100.00,NNW,335,5.0,9.0,41,0.00,,,0.00,446.000000,,2013-10-20 18:32:00,
2013-10-20 12:42:00,50.0,27.0,-100.00,NNW,335,5.0,9.0,41,0.00,,,0.00,446.000000,,2013-10-20 18:42:00,
2013-10-20 13:12:00,52.0,23.0,-100.00,WNW,295,7.0,12.0,32,0.00,,,0.00,498.000000,,2013-10-20 19:12:00,
2013-10-20 13:21:00,52.0,23.0,-100.00,WNW,295,7.0,12.0,32,0.00,,,0.00,498.000000,,2013-10-20 19:21:00,
2013-10-20 13:32:00,52.0,23.0,-100.00,WNW,295,7.0,12.0,32,0.00,,,0.00,498.000000,,2013-10-20 19:32:00,
2013-10-20 13:42:00,52.0,23.0,-100.00,WNW,295,7.0,12.0,32,0.00,,,0.00,498.000000,,2013-10-20 19:42:00,
2013-10-20 14:22:00,54.0,22.0,-100.00,WSW,253,5.0,11.0,28,0.00,,,0.00,565.000000,,2013-10-20 20:22:00,
2013-10-20 14:32:00,54.0,22.0,-100.00,WSW,253,5.0,11.0,28,0.00,,,0.00,565.000000,,2013-10-20 20:32:00,
2013-10-20 14:42:00,54.0,22.0,-100.00,WSW,253,5.0,11.0,28,0.00,,,0.00,565.000000,,2013-10-20 20:42:00,
2013-10-20 15:11:00,54.0,22.0,-100.00,WNW,289,6.0,13.0,28,0.00,,,0.00,614.000000,,2013-10-20 21:11:00,
2013-10-20 15:21:00,54.0,22.0,-100.00,WNW,289,6.0,13.0,28,0.00,,,0.00,614.000000,,2013-10-20 21:21:00,
2013-10-20 15:34:00,54.0,22.0,-100.00,WNW,289,6.0,13.0,28,0.00,,,0.00,614.000000,,2013-10-20 21:34:00,
2013-10-20 15:43:00,54.0,22.0,-100.00,WNW,289,6.0,13.0,28,0.00,,,0.00,614.000000,,2013-10-20 21:43:00,
2013-10-20 16:13:00,54.0,22.0,-100.00,NW,322,5.0,10.0,29,0.00,,,0.00,427.000000,,2013-10-20 22:13:00,
2013-10-20 16:23:00,54.0,22.0,-100.00,NW,322,5.0,10.0,29,0.00,,,0.00,427.000000,,2013-10-20 22:23:00,
2013-10-20 16:33:00,54.0,22.0,-100.00,NW,322,5.0,10.0,29,0.00,,,0.00,427.000000,,2013-10-20 22:33:00,
2013-10-20 16:43:00,54.0,22.0,-100.00,NW,322,5.0,10.0,29,0.00,,,0.00,427.000000,,2013-10-20 22:43:00,
2013-10-20 17:22:00,52.0,22.0,-100.00,WSW,250,2.0,7.0,31,0.00,,,0.00,239.000000,,2013-10-20 23:22:00,
2013-10-20 17:34:00,52.0,22.0,-100.00,WSW,250,2.0,7.0,31,0.00,,,0.00,239.000000,,2013-10-20 23:34:00,
2013-10-20 17:42:00,52.0,22.0,-100.00,WSW,250,2.0,7.0,31,0.00,,,0.00,239.000000,,2013-10-20 23:42:00,
2013-10-20 18:21:00,48.0,26.0,-100.00,SSW,197,4.0,6.0,42,0.00,,,0.00,95.000000,,2013-10-21 00:21:00,
2013-10-20 18:32:00,48.0,26.0,-100.00,SSW,197,4.0,6.0,42,0.00,,,0.00,95.000000,,2013-10-21 00:32:00,
2013-10-20 18:43:00,48.0,26.0,-100.00,SSW,197,4.0,6.0,42,0.00,,,0.00,95.000000,,2013-10-21 00:43:00,
2013-10-20 19:21:00,43.0,22.0,-100.00,North,5,1.0,7.0,42,0.00,,,0.00,25.000000,,2013-10-21 01:21:00,
2013-10-20 19:32:00,43.0,22.0,-100.00,North,5,1.0,7.0,42,0.00,,,0.00,25.000000,,2013-10-21 01:32:00,
2013-10-20 19:42:00,43.0,22.0,-100.00,North,5,1.0,7.0,42,0.00,,,0.00,25.000000,,2013-10-21 01:42:00,
2013-10-20 20:12:00,41.0,20.0,-100.00,SE,133,4.0,6.0,43,0.00,,,0.00,0.000000,,2013-10-21 02:12:00,
2013-10-20 20:22:00,41.0,20.0,-100.00,SE,133,4.0,6.0,43,0.00,,,0.00,0.000000,,2013-10-21 02:22:00,
2013-10-20 20:32:00,41.0,20.0,-100.00,SE,133,4.0,6.0,43,0.00,,,0.00,0.000000,,2013-10-21 02:32:00,
2013-10-20 20:42:00,41.0,20.0,-100.00,SE,133,4.0,6.0,43,0.00,,,0.00,0.000000,,2013-10-21 02:42:00,
2013-10-20 21:12:00,42.0,21.0,-100.00,SSE,160,6.0,10.0,43,0.00,,,0.00,0.000000,,2013-10-21 03:12:00,
2013-10-20 21:22:00,42.0,21.0,-100.00,SSE,160,6.0,10.0,43,0.00,,,0.00,0.000000,,2013-10-21 03:22:00,
2013-10-20 21:34:00,42.0,21.0,-100.00,SSE,160,6.0,10.0,43,0.00,,,0.00,0.000000,,2013-10-21 03:34:00,
2013-10-20 21:45:00,42.0,21.0,-100.00,SSE,160,6.0,10.0,43,0.00,,,0.00,0.000000,,2013-10-21 03:45:00,
2013-10-20 22:24:00,44.0,21.0,-100.00,South,175,5.0,8.0,39,0.00,,,0.00,0.000000,,2013-10-21 04:24:00,
2013-10-20 22:34:00,44.0,21.0,-100.00,South,175,5.0,8.0,39,0.00,,,0.00,0.000000,,2013-10-21 04:34:00,
2013-10-20 22:44:00,44.0,21.0,-100.00,South,175,5.0,8.0,39,0.00,,,0.00,0.000000,,2013-10-21 04:44:00,
2013-10-20 23:13:00,43.0,20.0,-100.00,WSW,245,3.0,7.0,40,0.00,,,0.00,0.000000,,2013-10-21 05:13:00,
2013-10-20 23:23:00,43.0,20.0,-100.00,WSW,245,3.0,7.0,40,0.00,,,0.00,0.000000,,2013-10-21 05:23:00,
2013-10-20 23:34:00,43.0,20.0,-100.00,WSW,245,3.0,7.0,40,0.00,,,0.00,0.000000,,2013-10-21 05:34:00,
2013-10-20 23:43:00,43.0,20.0,-100.00,WSW,245,3.0,7.0,40,0.00,,,0.00,0.000000,,2013-10-21 05:43:00,